Location: Earls Croome
(52.0667°N, 2.2000°W)
Time: 20:46:46
(UTC+00:00)

Cosmos 839 Rocket - Pass Details

Date: 17 November 2019
Orbit: 968 x 2084 km, 65.9° (Epoch: 08 December)

Event Time Altitude Azimuth Distance (km) Brightness Sun altitude
Exits shadow 05:14:10 27° 236° (SW) 1,942 5.1 -20.8°
Maximum altitude 05:18:03 70° 314° (NW) 1,078 4.0 -20.2°
Drops below altitude 10° 05:24:13 10° 39° (NE) 2,721 6.7 -19.3°
Sets 05:26:44 0° 42° (NE) 3,675 7.5 -18.9°
